Tracking 25372 objects as of 23-Jan-2022
HD Live streaming from Space Station
objects crossing your sky now

STARLINK-2093

Track STARLINK-2093 now!
10-day predictions
STARLINK-2093 is classified as:


NORAD ID: 47374
Int'l Code: 2021-005AB
Perigee: 553.0 km
Apogee: 555.6 km
Inclination: 53.0 °
Period: 95.6 minutes
Semi major axis: 6925 km
RCS: Unknown
Launch date: January 20, 2021
Source: United States (US)
Launch site: AIR FORCE EASTERN TEST RANGE (AFETR)
aabbcc
Your satellite tracking list
Your tracking list is empty




NASA's NSSDC Master Catalog

Two Line Element Set (TLE):
1 47374U 21005AB  22023.17446203  .00005757  00000-0  40498-3 0  9991
2 47374  53.0493 344.6854 0001866  60.7422 299.3754 15.06406767 55974
Source of the keplerian elements: AFSPC